period_start,C,m1,H,J0,J1,J2,J3,J4,J5,JA,JB,JC,JD,JJ,JK,JN,#
2016-02-22 00:01:48,0.04,2.15,0.00,17.78,21.62,25.57,15.21,49.56,1042.01,2054.17,2736.47,2609.81,2957.05,600.11,621.92,32.38,0000 0000 0000 0000 000000
2016-02-22 00:06:50,0.04,2.15,0.00,17.79,21.62,25.50,15.24,49.74,1042.01,2054.28,2735.96,2609.12,2957.00,600.28,622.08,32.43,0000 0000 0000 0000 000000
2016-02-22 00:11:51,0.03,2.15,0.00,17.79,21.62,25.59,15.23,49.60,1042.01,2054.47,2735.44,2609.00,2956.91,600.19,622.07,32.48,0000 0000 0000 0000 000000
2016-02-22 00:16:52,0.03,2.15,0.00,17.78,21.62,25.56,15.14,49.62,1042.01,2054.51,2735.01,2608.96,2956.16,599.98,621.85,32.53,0000 0000 0000 0000 000000
2016-02-22 00:21:53,0.05,2.15,0.00,17.77,21.62,25.52,15.25,49.98,1042.01,2054.76,2734.70,2608.33,2956.00,600.25,622.17,32.58,0000 0000 0000 0000 000000
2016-02-22 00:26:54,0.02,2.16,0.00,17.77,21.61,25.58,15.27,50.12,1042.01,2054.77,2734.02,2608.01,2955.93,600.20,622.00,32.63,0000 0000 0000 0000 000000
2016-02-22 00:31:56,0.03,2.16,0.00,17.77,21.60,25.50,15.21,49.98,1042.01,2054.92,2733.62,2607.95,2955.28,600.13,622.12,32.68,0000 0000 0000 0000 000000
2016-02-22 00:36:57,0.04,2.16,0.00,17.77,21.60,25.49,15.28,49.96,1042.01,2054.94,2733.03,2607.31,2955.00,599.84,621.62,32.74,0000 0000 0000 0000 000000
2016-02-22 00:41:58,0.01,2.16,0.00,17.78,21.59,25.53,15.25,49.85,1042.00,2054.94,2733.00,2607.02,2954.77,600.18,622.09,32.79,0000 0000 0000 0000 000000
2016-02-22 00:47:00,0.03,2.16,0.00,17.78,21.59,25.55,15.21,49.86,1042.00,2054.97,2732.39,2606.94,2954.07,600.03,621.80,32.84,0000 0000 0000 0000 000000
2016-02-22 00:52:01,0.03,2.16,0.00,17.78,21.59,25.52,15.15,49.86,1042.00,2054.96,2732.00,2606.32,2953.98,599.90,621.75,32.89,0000 0000 0000 0000 000000
2016-02-22 00:57:02,0.03,2.16,0.00,17.78,21.59,25.50,15.23,49.94,1041.91,2054.97,2731.71,2606.00,2953.46,599.85,621.65,32.94,0000 0000 0000 0000 000000
2016-02-22 01:02:03,0.02,2.17,0.00,17.80,21.59,25.51,15.10,49.98,1041.74,2054.96,2731.03,2605.81,2953.01,599.73,621.39,32.99,0000 0000 0000 0000 000000
2016-02-22 01:07:05,0.05,2.17,0.00,17.81,21.59,25.52,15.16,50.02,1041.65,2054.98,2730.26,2605.10,2952.91,600.02,621.62,33.04,0000 0000 0000 0000 000000
2016-02-22 01:12:06,0.01,2.17,0.00,17.81,21.59,25.51,15.22,50.00,1041.64,2054.98,2729.99,2605.00,2952.24,600.17,621.74,33.09,0000 0000 0000 0000 000000
2016-02-22 01:17:07,0.02,2.17,0.00,17.81,21.59,25.52,15.19,49.92,1041.56,2054.98,2729.74,2604.82,2952.00,599.88,621.51,33.14,0000 0000 0000 0000 000000
2016-02-22 01:22:08,0.04,2.17,0.00,17.81,21.59,25.50,15.24,49.93,1041.58,2054.98,2729.10,2604.10,2951.55,600.09,621.65,33.19,0000 0000 0000 0000 000000
2016-02-22 01:27:09,0.00,2.17,0.00,17.80,21.59,25.54,15.18,49.95,1041.61,2054.98,2728.96,2604.00,2951.01,600.05,621.51,33.24,0000 0000 0000 0000 000000
2016-02-22 01:32:10,0.05,2.17,0.00,17.82,21.59,25.50,15.16,49.87,1041.61,2054.99,2728.20,2603.53,2950.70,599.99,621.54,33.29,0000 0000 0000 0000 000000
2016-02-22 01:37:12,0.02,2.18,0.00,17.82,21.59,25.54,15.24,49.94,1041.77,2054.98,2727.82,2603.01,2950.03,600.25,621.81,33.34,0000 0000 0000 0000 000000
2016-02-22 01:42:13,0.01,2.18,0.00,17.84,21.59,25.45,15.14,49.79,1041.92,2054.98,2727.21,2602.95,2949.97,599.84,621.60,33.39,0000 0000 0000 0000 000000
2016-02-22 01:47:14,0.04,2.18,0.00,17.86,21.60,25.51,15.13,50.03,1041.90,2054.99,2726.97,2602.35,2949.40,599.84,621.49,33.44,0000 0000 0000 0000 000000
2016-02-22 01:52:16,0.02,2.18,0.00,17.85,21.60,25.54,15.23,50.17,1041.90,2054.98,2726.30,2602.00,2949.01,600.12,621.80,33.49,0000 0000 0000 0000 000000
2016-02-22 01:57:17,0.01,2.18,0.00,17.86,21.62,25.57,15.12,49.99,1041.78,2054.99,2726.01,2601.96,2948.77,599.89,621.41,33.54,0000 0000 0000 0000 000000
2016-02-22 02:02:18,0.04,2.18,0.00,17.86,21.62,25.54,15.13,49.95,1041.65,2054.99,2725.92,2601.26,2948.07,599.73,621.23,33.59,0000 0000 0000 0000 000000
2016-02-22 02:07:19,0.02,2.19,0.00,17.85,21.62,25.58,15.18,49.98,1041.57,2054.99,2725.12,2601.01,2947.88,599.90,621.29,33.64,0000 0000 0000 0000 000000
2016-02-22 02:12:20,0.02,2.19,0.00,17.87,21.62,25.53,15.19,49.97,1041.58,2054.98,2724.94,2600.82,2947.13,600.08,621.50,33.70,0000 0000 0000 0000 000000
2016-02-22 02:17:22,0.04,2.19,0.00,17.90,21.63,25.56,15.12,49.83,1041.57,2054.97,2724.11,2600.07,2946.91,599.58,621.19,33.75,0000 0000 0000 0000 000000
2016-02-22 02:22:23,0.03,2.19,0.00,17.93,21.64,25.56,15.22,49.96,1041.56,2054.96,2723.53,2599.89,2946.15,600.04,621.33,33.80,0000 0000 0000 0000 000000
2016-02-22 02:27:24,0.03,2.19,0.00,17.94,21.64,25.56,15.15,49.92,1041.55,2054.97,2722.88,2599.12,2945.94,599.77,621.05,33.85,0000 0000 0000 0000 000000
2016-02-22 02:32:26,0.04,2.20,0.00,17.94,21.64,25.57,15.18,50.01,1041.53,2054.95,2722.06,2598.82,2945.18,600.02,621.28,33.90,0000 0000 0000 0000 000000
2016-02-22 02:37:27,0.04,2.20,0.00,17.96,21.66,25.57,15.22,50.13,1041.52,2054.97,2721.26,2598.06,2944.91,600.17,621.42,33.95,0000 0000 0000 0000 000000
2016-02-22 02:42:28,0.02,2.20,0.00,17.98,21.67,25.59,15.29,50.39,1041.52,2054.95,2720.87,2597.87,2944.10,600.60,621.78,34.00,0000 0000 0000 0000 000000
2016-02-22 02:47:29,0.04,2.20,0.00,18.00,21.69,25.59,15.10,50.23,1041.53,2054.92,2720.13,2597.09,2943.95,599.61,620.86,34.05,0000 0000 0000 0000 000000
2016-02-22 02:52:31,-0.03,2.20,0.00,18.02,21.71,25.65,15.17,50.14,1041.52,2054.65,2720.01,2596.98,2943.18,599.99,621.08,34.10,0000 0000 0000 0000 000000
2016-02-22 02:57:32,0.03,2.20,0.00,18.03,21.73,25.66,15.20,50.10,1041.54,2054.24,2719.76,2596.38,2942.81,600.07,621.20,34.15,0000 0000 0000 0000 000000
2016-02-22 03:02:33,0.01,2.20,0.00,18.05,21.74,25.65,15.19,50.08,1041.53,2054.11,2719.03,2596.00,2942.06,600.11,621.24,34.20,0000 0000 0000 0000 000000
2016-02-22 03:07:34,0.04,2.20,0.00,18.07,21.77,25.72,15.23,50.21,1041.54,2054.07,2718.40,2595.61,2941.81,599.95,620.86,34.25,0000 0000 0000 0000 000000
2016-02-22 03:12:36,0.02,2.21,0.00,18.07,21.78,25.76,15.14,50.08,1041.53,2054.02,2717.99,2595.01,2941.04,599.87,620.85,34.30,0000 0000 0000 0000 000000
2016-02-22 03:17:37,0.05,2.21,0.00,18.10,21.79,25.70,15.17,49.99,1041.53,2054.01,2717.23,2594.55,2940.51,600.19,621.22,34.35,0000 0000 0000 0000 000000
2016-02-22 03:22:38,0.02,2.21,0.00,18.13,21.82,25.74,15.12,50.08,1041.53,2054.00,2716.68,2594.01,2939.98,599.69,620.59,34.40,0000 0000 0000 0000 000000
2016-02-22 03:27:39,0.05,2.21,0.00,18.14,21.83,25.72,15.18,50.02,1041.53,2054.00,2715.99,2593.44,2939.30,600.03,620.92,34.45,0000 0000 0000 0000 000000
2016-02-22 03:32:41,0.03,2.22,0.00,18.17,21.84,25.79,15.17,50.17,1041.53,2054.00,2715.19,2593.00,2938.88,599.96,620.66,34.50,0000 0000 0000 0000 000000
2016-02-22 03:37:42,0.04,2.22,0.00,18.18,21.87,25.79,15.17,50.27,1041.53,2053.98,2714.88,2592.58,2938.12,600.03,620.68,34.56,0000 0000 0000 0000 000000
2016-02-22 03:42:43,0.03,2.22,0.00,18.22,21.88,25.82,15.13,50.05,1041.53,2053.98,2714.11,2592.02,2937.90,599.97,620.64,34.61,0000 0000 0000 0000 000000
2016-02-22 03:47:44,0.02,2.22,0.00,18.22,21.89,25.80,15.19,49.94,1041.53,2053.96,2713.87,2591.76,2937.11,599.90,620.55,34.66,0000 0000 0000 0000 000000
2016-02-22 03:52:45,0.04,2.22,0.00,18.22,21.92,25.82,15.13,49.91,1041.52,2053.95,2713.08,2591.03,2936.72,599.88,620.55,34.71,0000 0000 0000 0000 000000
2016-02-22 03:57:46,0.01,2.22,0.00,18.24,21.93,25.85,15.15,49.94,1041.52,2053.73,2712.56,2590.58,2936.02,599.98,620.56,34.76,0000 0000 0000 0000 000000
2016-02-22 04:02:48,0.01,2.22,0.00,18.25,21.94,25.83,15.07,49.98,1041.53,2053.39,2711.98,2590.01,2935.31,599.60,620.21,34.81,0000 0000 0000 0000 000000
2016-02-22 04:07:49,0.01,2.22,0.00,18.27,21.96,25.86,15.20,50.06,1041.52,2053.15,2711.23,2589.57,2934.93,600.39,620.95,34.86,0000 0000 0000 0000 000000
2016-02-22 04:12:50,0.04,2.23,0.00,18.28,21.97,25.88,15.15,49.92,1041.52,2053.06,2710.69,2589.02,2934.13,600.29,620.81,34.91,0000 0000 0000 0000 000000
2016-02-22 04:17:51,0.01,2.23,0.00,18.31,21.99,25.84,15.15,49.94,1041.52,2053.04,2710.01,2588.79,2933.93,599.97,620.47,34.96,0000 0000 0000 0000 000000
2016-02-22 04:22:52,0.05,2.23,0.00,18.34,22.00,25.86,15.15,50.05,1041.52,2053.04,2709.61,2588.06,2933.14,599.86,620.25,35.01,0000 0000 0000 0000 000000
2016-02-22 04:27:53,0.01,2.23,0.00,18.35,22.02,25.94,15.13,49.98,1041.52,2053.02,2709.01,2587.98,2932.99,599.90,620.24,35.06,0000 0000 0000 0000 000000
2016-02-22 04:32:55,0.06,2.23,0.00,18.36,22.02,25.93,15.10,50.00,1041.52,2053.00,2708.58,2587.46,2932.40,599.51,619.96,35.11,0000 0000 0000 0000 000000
2016-02-22 04:37:56,0.01,2.24,0.00,18.37,22.04,25.95,15.13,49.88,1041.52,2053.00,2708.01,2587.01,2932.00,600.30,620.51,35.16,0000 0000 0000 0000 000000
2016-02-22 04:42:57,0.03,2.24,0.00,18.41,22.04,25.90,15.12,49.98,1041.52,2053.00,2707.38,2586.86,2931.65,600.13,620.39,35.21,0000 0000 0000 0000 000000
2016-02-22 04:47:58,0.03,2.24,0.00,18.43,22.06,25.93,15.13,49.83,1041.52,2053.00,2707.00,2586.14,2931.04,600.18,620.57,35.26,0000 0000 0000 0000 000000
2016-02-22 04:53:00,0.01,2.24,0.00,18.43,22.07,25.95,15.19,50.03,1041.52,2053.00,2706.74,2586.01,2930.99,600.13,620.51,35.31,0000 0000 0000 0000 000000
2016-02-22 04:58:01,0.03,2.24,0.00,18.42,22.08,25.96,15.18,50.02,1041.52,2052.99,2706.13,2585.89,2930.42,600.08,620.25,35.36,0000 0000 0000 0000 000000
2016-02-22 05:03:02,0.03,2.24,0.00,18.45,22.09,25.95,15.05,49.88,1041.52,2052.99,2705.95,2585.18,2930.02,599.69,619.81,35.41,0000 0000 0000 0000 000000
2016-02-22 05:08:04,0.01,2.24,0.00,18.47,22.10,26.01,15.10,49.92,1041.52,2052.99,2705.30,2585.01,2930.00,599.92,620.05,35.46,0000 0000 0000 0000 000000
2016-02-22 05:13:05,0.01,2.24,0.00,18.47,22.12,26.02,15.28,49.99,1041.52,2052.98,2705.00,2584.97,2929.53,600.22,620.32,35.52,0000 0000 0000 0000 000000
2016-02-22 05:18:06,0.03,2.25,0.00,18.49,22.13,26.09,15.23,50.08,1041.52,2052.96,2704.62,2584.61,2929.04,600.15,620.18,35.57,0000 0000 0000 0000 000000
2016-02-22 05:23:07,0.02,2.25,0.00,18.52,22.14,26.08,15.17,49.91,1041.52,2052.97,2704.03,2584.05,2929.00,599.75,619.77,35.62,0000 0000 0000 0000 000000
2016-02-22 05:28:08,-0.01,2.25,0.00,18.52,22.16,26.07,15.19,49.93,1041.52,2052.88,2704.00,2584.00,2928.78,600.06,620.04,35.67,0000 0000 0000 0000 000000
2016-02-22 05:33:10,0.01,2.25,0.00,18.54,22.18,26.08,15.19,49.95,1041.52,2052.84,2703.99,2584.00,2928.19,600.40,620.42,35.72,0000 0000 0000 0000 000000
2016-02-22 05:38:11,-0.01,2.25,0.00,18.55,22.19,26.12,15.13,49.95,1041.52,2052.63,2703.62,2583.84,2928.01,599.94,620.07,35.77,0000 0000 0000 0000 000000
2016-02-22 05:43:12,0.01,2.25,0.00,18.54,22.20,26.16,15.23,49.87,1041.52,2052.32,2703.03,2583.14,2928.00,599.99,620.05,35.82,0000 0000 0000 0000 000000
2016-02-22 05:48:13,-0.01,2.25,0.00,18.56,22.22,26.16,15.15,49.84,1041.52,2052.19,2703.00,2583.01,2927.94,600.08,620.07,35.87,0000 0000 0000 0000 000000
2016-02-22 05:53:14,0.00,2.25,0.00,18.56,22.23,26.19,15.16,49.77,1041.52,2052.07,2702.96,2582.99,2927.25,600.21,620.14,35.92,0000 0000 0000 0000 000000
2016-02-22 05:58:16,0.02,2.25,0.00,18.57,22.24,26.18,15.14,49.91,1041.52,2052.04,2702.31,2582.96,2927.01,599.86,619.82,35.97,0000 0000 0000 0000 000000
2016-02-22 06:03:17,0.01,2.25,0.00,18.58,22.25,26.13,15.16,49.75,1041.52,2052.02,2702.04,2582.69,2926.99,600.13,620.02,36.02,0000 0000 0000 0000 000000
2016-02-22 06:08:18,0.02,2.25,0.00,18.59,22.27,26.15,15.15,49.78,1041.52,2052.02,2701.99,2582.15,2926.89,600.07,619.91,36.07,0000 0000 0000 0000 000000
2016-02-22 06:13:19,0.02,2.25,0.00,18.62,22.27,26.15,15.09,49.73,1041.52,2052.00,2701.51,2582.00,2926.24,599.76,619.51,36.12,0000 0000 0000 0000 000000
2016-02-22 06:18:20,0.01,2.25,0.00,18.63,22.29,26.27,15.13,49.82,1041.52,2052.00,2701.10,2582.00,2926.01,600.07,619.83,36.17,0000 0000 0000 0000 000000
2016-02-22 06:23:22,0.00,2.25,0.00,18.63,22.29,26.19,15.22,49.77,1041.52,2052.00,2701.00,2581.94,2926.00,600.02,619.78,36.22,0000 0000 0000 0000 000000
2016-02-22 06:28:22,0.02,2.25,0.00,18.65,22.31,26.20,15.15,49.73,1041.52,2052.00,2700.92,2581.46,2925.98,600.17,619.92,36.27,0000 0000 0000 0000 000000
2016-02-22 06:33:24,0.03,2.26,0.00,18.65,22.32,26.24,15.19,49.80,1041.52,2052.00,2700.21,2581.04,2925.73,600.21,619.95,36.32,0000 0000 0000 0000 000000
2016-02-22 06:38:25,0.01,2.26,0.00,18.68,22.33,26.23,15.17,49.83,1041.53,2052.00,2700.02,2581.00,2925.21,599.95,619.59,36.37,0000 0000 0000 0000 000000
2016-02-22 06:43:26,0.00,2.26,0.00,18.69,22.34,26.31,15.09,49.95,1041.54,2052.00,2700.00,2581.00,2925.03,599.63,619.32,36.43,0000 0000 0000 0000 000000
2016-02-22 06:48:27,0.00,2.26,0.00,18.68,22.35,26.26,15.17,49.83,1041.53,2052.00,2700.00,2580.99,2925.00,600.19,619.88,36.48,0000 0000 0000 0000 000000
2016-02-22 06:53:29,0.00,2.26,0.00,18.69,22.37,26.29,15.17,49.76,1041.53,2052.00,2700.00,2580.97,2924.99,600.40,619.97,36.53,0000 0000 0000 0000 000000
2016-02-22 06:58:30,0.01,2.26,0.00,18.69,22.37,26.22,15.17,49.77,1041.53,2051.98,2699.98,2580.72,2924.84,600.36,619.95,36.58,0000 0000 0000 0000 000000
2016-02-22 07:03:31,0.03,2.26,0.00,18.69,22.39,26.27,15.13,49.65,1041.53,2051.96,2699.95,2580.18,2924.12,599.84,619.56,36.63,0000 0000 0000 0000 000000
2016-02-22 07:08:33,0.02,2.26,0.00,18.69,22.39,26.27,15.14,49.64,1041.54,2051.98,2699.39,2580.06,2924.03,600.24,619.91,36.68,0000 0000 0000 0000 000000
2016-02-22 07:13:34,0.00,2.26,0.00,18.71,22.39,26.33,15.06,49.59,1041.54,2051.96,2699.06,2580.00,2924.01,599.54,619.28,36.73,0000 0000 0000 0000 000000
2016-02-22 07:18:35,-0.00,2.26,0.00,18.71,22.41,26.38,15.17,49.49,1041.53,2051.91,2699.01,2580.00,2924.00,600.55,620.14,36.78,0000 0000 0000 0000 000000
2016-02-22 07:23:37,-0.01,2.26,0.00,18.71,22.42,26.34,15.13,49.49,1041.54,2051.76,2698.99,2579.98,2923.97,600.07,619.69,36.83,0000 0000 0000 0000 000000
2016-02-22 07:28:38,0.01,2.26,0.00,18.72,22.42,26.31,15.16,49.49,1041.53,2051.56,2698.62,2579.86,2923.56,600.09,619.67,36.88,0000 0000 0000 0000 000000
2016-02-22 07:33:39,0.04,2.26,0.00,18.70,22.42,26.29,15.12,49.55,1041.56,2051.78,2698.05,2579.55,2923.32,600.19,619.84,36.93,0000 0000 0000 0000 000000
2016-02-22 07:38:40,-0.00,2.26,0.00,18.70,22.42,26.34,15.11,49.72,1041.65,2051.56,2698.01,2579.10,2923.04,599.75,619.48,36.98,0000 0000 0000 0000 000000
2016-02-22 07:43:42,0.01,2.26,0.00,18.71,22.42,26.31,15.13,49.73,1041.63,2051.71,2698.00,2579.04,2923.01,599.58,619.25,37.03,0000 0000 0000 0000 000000
2016-02-22 07:48:43,0.01,2.26,0.00,18.70,22.42,26.30,15.18,49.71,1041.69,2051.73,2697.96,2579.00,2923.00,600.18,619.92,37.08,0000 0000 0000 0000 000000
2016-02-22 07:53:45,0.02,2.26,0.00,18.69,22.42,26.35,15.10,49.81,1041.57,2051.87,2697.53,2579.00,2923.00,599.58,619.17,37.13,0000 0000 0000 0000 000000
2016-02-22 07:58:46,0.01,2.26,0.00,18.71,22.42,26.36,15.13,49.71,1041.60,2051.93,2697.05,2578.98,2922.98,600.02,619.67,37.18,0000 0000 0000 0000 000000
2016-02-22 08:03:47,0.02,2.26,0.00,18.72,22.42,26.33,15.07,49.76,1041.57,2051.90,2696.93,2578.89,2922.94,599.89,619.50,37.23,0000 0000 0000 0000 000000
2016-02-22 08:08:49,0.03,2.27,0.00,18.72,22.42,26.32,15.15,49.94,1041.59,2051.97,2696.65,2578.52,2922.48,599.99,619.76,37.28,0000 0000 0000 0000 000000
2016-02-22 08:13:50,-0.00,2.27,0.00,18.72,22.42,26.30,15.16,49.77,1041.63,2051.94,2696.97,2578.31,2922.03,600.06,619.75,37.34,0000 0000 0000 0000 000000
2016-02-22 08:18:51,0.00,2.27,0.00,18.72,22.42,26.39,15.16,49.74,1041.64,2051.92,2696.75,2578.05,2922.00,599.94,619.67,37.39,0000 0000 0000 0000 000000
2016-02-22 08:23:52,-0.01,2.27,0.00,18.72,22.42,26.44,15.07,49.73,1041.65,2051.74,2696.20,2578.00,2922.00,599.69,619.32,37.44,0000 0000 0000 0000 000000
2016-02-22 08:28:54,0.02,2.27,0.00,18.72,22.42,26.35,15.09,49.73,1041.60,2051.82,2696.07,2578.00,2921.99,599.95,619.65,37.49,0000 0000 0000 0000 000000
2016-02-22 08:33:55,0.00,2.27,0.00,18.71,22.43,26.36,15.14,49.76,1041.65,2051.76,2696.01,2577.99,2921.78,600.08,619.71,37.54,0000 0000 0000 0000 000000
2016-02-22 08:38:56,0.00,2.27,0.00,18.71,22.43,26.29,15.13,49.79,1041.71,2051.79,2696.00,2577.98,2921.31,599.83,619.54,37.59,0000 0000 0000 0000 000000
2016-02-22 08:43:57,0.01,2.27,0.00,18.73,22.43,26.36,15.16,49.68,1041.80,2051.67,2695.80,2577.73,2921.03,600.04,619.80,37.64,0000 0000 0000 0000 000000
2016-02-22 08:48:59,0.01,2.27,0.00,18.70,22.43,26.42,15.03,49.81,1041.79,2051.67,2695.46,2577.21,2921.00,599.52,619.17,37.69,0000 0000 0000 0000 000000
2016-02-22 08:54:00,0.03,2.27,0.00,18.69,22.42,26.33,15.12,49.78,1041.76,2051.71,2695.15,2577.05,2920.99,600.02,619.87,37.74,0000 0000 0000 0000 000000
2016-02-22 08:59:02,-0.01,2.27,0.00,18.69,22.42,26.26,15.12,49.71,1041.78,2051.57,2695.05,2577.01,2920.97,600.05,619.92,37.79,0000 0000 0000 0000 000000
2016-02-22 09:04:03,-0.01,2.27,0.00,18.70,22.42,26.31,15.18,49.77,1041.85,2051.45,2695.01,2577.00,2920.78,600.14,620.01,37.84,0000 0000 0000 0000 000000
2016-02-22 09:09:04,0.02,2.27,0.00,18.69,22.42,26.37,15.14,49.61,1041.96,2051.70,2694.99,2577.00,2920.47,600.07,620.04,37.89,0000 0000 0000 0000 000000
2016-02-22 09:14:06,0.02,2.27,0.00,18.68,22.42,26.29,15.12,49.66,1041.99,2051.72,2694.79,2576.97,2920.11,599.93,619.90,37.94,0000 0000 0000 0000 000000
2016-02-22 09:19:07,0.01,2.27,0.00,18.68,22.41,26.34,15.05,49.56,1042.01,2051.73,2694.57,2576.94,2920.01,599.84,619.69,37.99,0000 0000 0000 0000 000000
2016-02-22 09:24:08,0.01,2.27,0.00,18.69,22.40,26.34,15.18,49.71,1041.99,2051.50,2694.04,2576.44,2920.00,600.35,620.29,38.04,0000 0000 0000 0000 000000
2016-02-22 09:29:09,0.02,2.28,0.00,18.69,22.40,26.35,15.13,49.78,1042.01,2051.71,2694.01,2576.17,2920.00,599.91,619.83,38.09,0000 0000 0000 0000 000000
2016-02-22 09:34:11,0.01,2.28,0.00,18.67,22.39,26.34,15.14,49.67,1042.01,2051.75,2694.00,2576.02,2919.97,599.81,619.88,38.14,0000 0000 0000 0000 000000
2016-02-22 09:39:12,0.00,2.28,0.00,18.68,22.39,26.28,15.14,49.72,1042.00,2051.82,2693.97,2576.00,2919.96,600.13,620.13,38.19,0000 0000 0000 0000 000000
2016-02-22 09:44:13,-0.00,2.28,0.00,18.66,22.39,26.34,15.18,49.71,1042.01,2051.84,2693.98,2576.00,2919.70,600.36,620.45,38.24,0000 0000 0000 0000 000000
2016-02-22 09:49:14,0.02,2.28,0.00,18.65,22.39,26.34,15.19,49.67,1042.01,2051.78,2693.72,2576.00,2919.11,600.26,620.31,38.30,0000 0000 0000 0000 000000
2016-02-22 09:54:15,0.01,2.28,0.00,18.64,22.39,26.32,15.13,49.73,1042.01,2051.86,2693.03,2576.00,2919.11,599.82,619.88,38.35,0000 0000 0000 0000 000000
2016-02-22 09:59:17,-0.00,2.28,0.00,18.65,22.39,26.31,15.14,49.73,1042.01,2051.96,2693.01,2575.98,2919.03,599.99,619.94,38.40,0000 0000 0000 0000 000000
2016-02-22 10:04:18,0.00,2.28,0.00,18.64,22.38,26.26,15.12,49.75,1042.01,2051.94,2693.01,2575.97,2919.00,599.96,620.13,38.45,0000 0000 0000 0000 000000
2016-02-22 10:09:20,0.01,2.28,0.00,18.63,22.37,26.28,15.08,49.72,1042.01,2051.90,2692.94,2575.58,2919.00,599.56,619.59,38.50,0000 0000 0000 0000 000000
2016-02-22 10:14:21,0.02,2.28,0.00,18.64,22.37,26.26,15.14,49.78,1042.01,2051.95,2692.72,2575.10,2918.98,599.99,620.12,38.55,0000 0000 0000 0000 000000
2016-02-22 10:19:22,0.02,2.28,0.00,18.64,22.37,26.27,15.04,49.66,1042.01,2051.96,2692.72,2575.01,2918.50,599.61,619.61,38.60,0000 0000 0000 0000 000000
2016-02-22 10:24:23,0.02,2.28,0.00,18.63,22.37,26.26,15.12,49.79,1042.01,2051.97,2692.05,2575.00,2918.07,600.02,620.05,38.65,0000 0000 0000 0000 000000
2016-02-22 10:29:25,0.01,2.28,0.00,18.62,22.37,26.21,15.17,49.70,1042.01,2051.95,2691.88,2574.78,2918.00,599.95,620.05,38.70,0000 0000 0000 0000 000000
2016-02-22 10:34:26,0.05,2.29,0.00,18.60,22.35,26.24,15.16,49.80,1042.01,2051.95,2691.19,2574.07,2917.37,600.03,620.09,38.75,0000 0000 0000 0000 000000
2016-02-22 10:39:27,0.02,2.29,0.00,18.59,22.34,26.26,15.13,49.61,1042.01,2051.97,2690.65,2573.87,2916.98,600.21,620.37,38.80,0000 0000 0000 0000 000000
2016-02-22 10:44:28,0.05,2.29,0.00,18.59,22.34,26.24,15.17,49.82,1042.01,2051.98,2690.03,2573.08,2916.24,600.01,620.17,38.85,0000 0000 0000 0000 000000
2016-02-22 10:49:29,0.01,2.29,0.00,18.58,22.34,26.29,15.12,49.73,1042.01,2051.97,2689.40,2572.98,2916.00,599.64,619.86,38.90,0000 0000 0000 0000 000000
2016-02-22 10:54:31,0.03,2.29,0.00,18.56,22.34,26.25,15.09,49.67,1042.01,2051.97,2689.00,2572.43,2915.82,600.03,619.99,38.95,0000 0000 0000 0000 000000
2016-02-22 10:59:33,0.02,2.29,0.00,18.54,22.34,26.25,15.12,49.73,1042.02,2051.96,2688.91,2572.05,2915.11,599.91,620.17,39.00,0000 0000 0000 0000 000000
2016-02-22 11:04:34,0.02,2.30,0.00,18.54,22.32,26.24,15.14,49.67,1042.02,2051.96,2688.09,2571.99,2915.00,599.89,620.17,39.05,0000 0000 0000 0000 000000
2016-02-22 11:09:35,0.02,2.30,0.00,18.54,22.32,26.18,15.18,49.79,1042.01,2051.99,2687.75,2571.73,2914.96,600.37,620.63,39.10,0000 0000 0000 0000 000000
2016-02-22 11:14:36,0.03,2.30,0.00,18.51,22.32,26.23,15.11,49.83,1042.02,2051.99,2687.36,2571.19,2914.67,599.98,620.36,39.16,0000 0000 0000 0000 000000
2016-02-22 11:19:37,0.01,2.30,0.00,18.51,22.32,26.27,15.10,50.03,1042.01,2051.99,2687.01,2571.03,2914.14,599.63,619.96,39.21,0000 0000 0000 0000 000000
2016-02-22 11:24:38,0.00,2.30,0.00,18.50,22.32,26.21,15.14,49.77,1042.02,2051.99,2687.05,2571.00,2914.00,599.85,620.15,39.26,0000 0000 0000 0000 000000
2016-02-22 11:29:40,0.00,2.30,0.00,18.51,22.32,26.18,15.19,49.86,1042.03,2051.99,2686.99,2571.00,2913.99,600.00,620.45,39.31,0000 0000 0000 0000 000000
2016-02-22 11:34:41,0.01,2.30,0.00,18.49,22.32,26.20,15.20,49.87,1042.01,2051.99,2686.47,2570.96,2913.98,600.00,620.43,39.36,0000 0000 0000 0000 000000
2016-02-22 11:39:42,0.02,2.30,0.00,18.49,22.32,26.23,15.16,49.83,1042.02,2051.99,2686.60,2570.69,2913.43,599.59,619.94,39.41,0000 0000 0000 0000 000000
2016-02-22 11:44:44,0.03,2.30,0.00,18.50,22.32,26.23,15.09,49.77,1042.02,2051.99,2686.16,2570.06,2913.00,599.74,620.17,39.46,0000 0000 0000 0000 000000
2016-02-22 11:49:45,0.00,2.30,0.00,18.50,22.32,26.22,15.14,49.75,1042.02,2051.98,2685.98,2570.00,2912.96,600.06,620.35,39.51,0000 0000 0000 0000 000000
2016-02-22 11:54:46,0.03,2.30,0.00,18.48,22.32,26.23,15.19,49.65,1042.01,2051.98,2685.64,2569.85,2912.26,599.94,620.31,39.56,0000 0000 0000 0000 000000
2016-02-22 11:59:48,0.03,2.31,0.00,18.47,22.32,26.27,15.14,49.58,1042.01,2051.98,2685.05,2569.14,2912.00,599.91,620.22,39.61,0000 0000 0000 0000 000000
2016-02-22 12:04:49,0.01,2.31,0.00,18.47,22.32,26.21,15.17,49.60,1042.02,2051.99,2684.96,2569.00,2911.75,600.12,620.68,39.66,0000 0000 0000 0000 000000
2016-02-22 12:09:50,0.03,2.31,0.00,18.47,22.32,26.21,15.18,49.68,1042.02,2051.99,2684.19,2568.91,2911.05,600.48,620.81,39.71,0000 0000 0000 0000 000000
2016-02-22 12:14:51,0.02,2.31,0.00,18.47,22.30,26.21,15.18,49.77,1042.01,2051.98,2684.00,2568.21,2910.99,600.08,620.44,39.76,0000 0000 0000 0000 000000
2016-02-22 12:19:52,0.01,2.31,0.00,18.45,22.29,26.17,15.14,49.58,1042.01,2051.98,2683.78,2568.01,2910.89,599.65,620.11,39.81,0000 0000 0000 0000 000000
2016-02-22 12:24:54,0.02,2.31,0.00,18.46,22.29,26.24,15.16,49.58,1042.01,2051.99,2683.24,2568.00,2910.30,599.79,620.28,39.86,0000 0000 0000 0000 000000
2016-02-22 12:29:55,0.00,2.31,0.00,18.44,22.27,26.11,15.17,49.60,1042.01,2051.99,2683.00,2567.98,2910.01,599.94,620.36,39.91,0000 0000 0000 0000 000000
2016-02-22 12:34:56,0.00,2.31,0.00,18.43,22.27,26.11,15.17,49.59,1042.01,2051.99,2683.00,2567.89,2910.00,600.06,620.55,39.96,0000 0000 0000 0000 000000
2016-02-22 12:39:58,0.03,2.31,0.00,18.44,22.26,26.12,15.17,49.38,1042.01,2051.99,2682.79,2567.25,2909.90,599.83,620.30,40.01,0000 0000 0000 0000 000000
2016-02-22 12:44:59,0.03,2.32,0.00,18.43,22.24,26.18,15.13,49.52,1042.00,2051.99,2682.07,2567.01,2909.38,599.94,620.40,40.06,0000 0000 0000 0000 000000
2016-02-22 12:50:00,0.00,2.32,0.00,18.42,22.24,26.17,15.13,49.38,1042.00,2051.99,2681.98,2566.99,2909.02,600.10,620.66,40.12,0000 0000 0000 0000 000000
2016-02-22 12:55:01,0.01,2.32,0.00,18.40,22.22,26.13,15.12,49.44,1041.99,2052.00,2681.74,2566.92,2908.99,600.28,620.66,40.17,0000 0000 0000 0000 000000